Tracking 27420 objects as of 28-May-2023
HD Live streaming from Space Station
objects crossing your sky now

CZ-4 DEB

Track CZ-4 DEB now!
10-day predictions


NORAD ID: 20900
Int'l Code: 1990-081BL
Perigee: 725.9 km
Apogee: 787.9 km
Inclination: 99.1 °
Period: 99.8 minutes
Semi major axis: 7127 km
RCS: 0.0514 m2 (small)
Launch date: September 3, 1990
Source: People's Republic of China (PRC)
Launch site: Taiyaun Space Center, China (TSC)

Note: This is SATELLITE DEBRIS
Your satellite tracking list
Your tracking list is empty




NASA's NSSDC Master Catalog

Two Line Element Set (TLE):
1 20900U 90081BL  23147.86231360  .00007178  00000-0  21476-2 0  9990
2 20900  99.0509 113.9659 0043538 338.9003  81.7384 14.42645402685145
Source of the keplerian elements: AFSPC